TimeCDT,TemperatureF,Dew PointF,Humidity,Sea Level PressureIn,VisibilityMPH,Wind Direction,Wind SpeedMPH,Gust SpeedMPH,PrecipitationIn,Events,Conditions,WindDirDegrees,DateUTC
12:15 AM,62.6,60.8,94,29.96,10.0,East,8.1,-,N/A,,Clear,80,2014-06-09 05:15:00
12:35 AM,62.6,60.8,94,29.96,10.0,East,5.8,-,N/A,,Clear,80,2014-06-09 05:35:00
12:55 AM,62.6,60.8,94,29.96,10.0,East,6.9,-,N/A,,Clear,90,2014-06-09 05:55:00
1:15 AM,62.6,60.8,94,29.96,10.0,East,5.8,-,N/A,,Clear,90,2014-06-09 06:15:00
1:35 AM,62.6,60.8,94,29.96,-9999.0,East,5.8,-,N/A,,Clear,100,2014-06-09 06:35:00
1:55 AM,62.6,60.8,94,29.95,10.0,East,6.9,-,N/A,,Clear,100,2014-06-09 06:55:00
2:15 AM,62.6,60.8,94,29.94,10.0,East,8.1,-,N/A,,Clear,100,2014-06-09 07:15:00
2:35 AM,62.6,60.8,94,29.93,10.0,ESE,9.2,-,N/A,,Clear,110,2014-06-09 07:35:00
2:55 AM,62.6,60.8,94,29.92,10.0,ESE,9.2,-,N/A,,Clear,110,2014-06-09 07:55:00
3:15 AM,62.6,60.8,94,29.92,10.0,ESE,12.7,-,N/A,,Clear,120,2014-06-09 08:15:00
3:35 AM,62.6,59.0,88,29.93,10.0,SE,9.2,-,N/A,,Clear,130,2014-06-09 08:35:00
3:55 AM,62.6,59.0,88,29.93,10.0,ESE,8.1,-,N/A,,Mostly Cloudy,120,2014-06-09 08:55:00
4:15 AM,62.6,59.0,88,29.93,10.0,SE,9.2,-,N/A,,Partly Cloudy,130,2014-06-09 09:15:00
4:35 AM,60.8,59.0,94,29.93,10.0,ESE,5.8,-,N/A,,Partly Cloudy,110,2014-06-09 09:35:00
4:55 AM,60.8,59.0,94,29.92,10.0,East,5.8,-,N/A,,Partly Cloudy,100,2014-06-09 09:55:00
5:15 AM,60.8,59.0,94,29.92,10.0,East,4.6,-,N/A,,Clear,100,2014-06-09 10:15:00
5:35 AM,60.8,59.0,94,29.91,10.0,East,5.8,-,N/A,,Clear,90,2014-06-09 10:35:00
5:55 AM,60.8,59.0,94,29.91,9.0,East,5.8,-,N/A,,Clear,90,2014-06-09 10:55:00
6:15 AM,60.8,59.0,94,29.91,10.0,East,5.8,-,N/A,,Scattered Clouds,90,2014-06-09 11:15:00
6:35 AM,60.8,59.0,94,29.92,10.0,ESE,4.6,-,N/A,,Mostly Cloudy,110,2014-06-09 11:35:00
6:55 AM,62.6,59.0,88,29.92,10.0,ESE,8.1,-,N/A,,Partly Cloudy,110,2014-06-09 11:55:00
7:15 AM,62.6,59.0,88,29.93,9.0,ESE,9.2,-,N/A,,Clear,110,2014-06-09 12:15:00
7:35 AM,62.6,60.8,94,29.93,10.0,ESE,9.2,-,N/A,,Scattered Clouds,110,2014-06-09 12:35:00
7:55 AM,64.4,60.8,88,29.94,10.0,ESE,8.1,-,N/A,,Mostly Cloudy,120,2014-06-09 12:55:00
8:15 AM,64.4,60.8,88,29.93,-9999.0,East,6.9,-,N/A,,Unknown,100,2014-06-09 13:15:00
8:35 AM,64.4,60.8,88,29.92,10.0,East,9.2,-,N/A,,Partly Cloudy,100,2014-06-09 13:35:00
8:55 AM,66.2,62.6,88,29.92,10.0,East,8.1,-,N/A,,Clear,100,2014-06-09 13:55:00
9:15 AM,68.0,60.8,78,29.92,10.0,ESE,8.1,-,N/A,,Clear,110,2014-06-09 14:15:00
9:35 AM,68.0,62.6,83,29.93,10.0,ESE,9.2,-,N/A,,Scattered Clouds,110,2014-06-09 14:35:00
9:55 AM,68.0,62.6,83,29.93,10.0,East,8.1,-,N/A,,Overcast,100,2014-06-09 14:55:00
10:15 AM,69.8,62.6,78,29.93,10.0,East,10.4,-,N/A,,Overcast,90,2014-06-09 15:15:00
10:35 AM,71.6,62.6,73,29.93,10.0,East,9.2,-,N/A,,Mostly Cloudy,90,2014-06-09 15:35:00
10:55 AM,69.8,62.6,78,29.93,10.0,East,6.9,-,N/A,,Mostly Cloudy,80,2014-06-09 15:55:00
11:35 AM,71.6,62.6,73,29.92,10.0,East,11.5,-,N/A,,Mostly Cloudy,80,2014-06-09 16:35:00
11:55 AM,71.6,62.6,73,29.91,10.0,East,9.2,-,N/A,,Mostly Cloudy,90,2014-06-09 16:55:00
12:15 PM,71.6,62.6,73,29.91,10.0,ENE,12.7,-,N/A,,Scattered Clouds,70,2014-06-09 17:15:00
12:35 PM,73.4,62.6,69,29.90,10.0,NE,11.5,-,N/A,,Partly Cloudy,50,2014-06-09 17:35:00
12:55 PM,73.4,62.6,69,29.89,10.0,ENE,11.5,-,N/A,,Scattered Clouds,70,2014-06-09 17:55:00
1:15 PM,73.4,60.8,65,29.89,10.0,ENE,13.8,-,N/A,,Scattered Clouds,60,2014-06-09 18:15:00
1:35 PM,73.4,60.8,65,29.89,10.0,ENE,12.7,-,N/A,,Scattered Clouds,70,2014-06-09 18:35:00
2:35 PM,73.4,64.4,73,29.87,10.0,NE,10.4,-,N/A,,Mostly Cloudy,40,2014-06-09 19:35:00
2:55 PM,73.4,64.4,73,29.86,10.0,NE,11.5,19.6,N/A,,Mostly Cloudy,50,2014-06-09 19:55:00
3:15 PM,73.4,62.6,69,29.86,10.0,NE,16.1,-,N/A,,Partly Cloudy,50,2014-06-09 20:15:00
3:35 PM,73.4,62.6,69,29.85,10.0,ENE,13.8,24.2,N/A,,Partly Cloudy,60,2014-06-09 20:35:00
4:15 PM,71.6,62.6,73,29.85,10.0,NE,16.1,23.0,N/A,,Clear,50,2014-06-09 21:15:00
4:35 PM,71.6,62.6,73,29.84,10.0,NE,19.6,-,N/A,,Partly Cloudy,40,2014-06-09 21:35:00
4:55 PM,71.6,62.6,73,29.84,10.0,NE,13.8,-,N/A,,Clear,40,2014-06-09 21:55:00
5:15 PM,71.6,62.6,73,29.84,10.0,NE,16.1,-,N/A,,Clear,50,2014-06-09 22:15:00
5:35 PM,71.6,62.6,73,29.83,10.0,NE,15.0,-,N/A,,Partly Cloudy,40,2014-06-09 22:35:00
5:55 PM,71.6,62.6,73,29.83,10.0,NE,16.1,-,N/A,,Partly Cloudy,40,2014-06-09 22:55:00
6:15 PM,71.6,62.6,73,29.83,10.0,NE,13.8,-,N/A,,Partly Cloudy,40,2014-06-09 23:15:00
6:35 PM,71.6,62.6,73,29.83,-9999.0,NE,13.8,21.9,N/A,,Scattered Clouds,50,2014-06-09 23:35:00
6:55 PM,71.6,62.6,73,29.84,10.0,NE,12.7,-,N/A,,Partly Cloudy,40,2014-06-09 23:55:00
7:15 PM,71.6,62.6,73,29.85,10.0,NE,13.8,-,N/A,,Scattered Clouds,50,2014-06-10 00:15:00
7:35 PM,71.6,62.6,73,29.85,10.0,NE,12.7,20.7,N/A,,Clear,40,2014-06-10 00:35:00
7:55 PM,69.8,60.8,73,29.85,10.0,NE,13.8,19.6,N/A,,Clear,40,2014-06-10 00:55:00
8:15 PM,69.8,60.8,73,29.86,10.0,NE,11.5,-,N/A,,Clear,40,2014-06-10 01:15:00
8:35 PM,69.8,60.8,73,29.87,10.0,NE,10.4,-,N/A,,Clear,50,2014-06-10 01:35:00
8:55 PM,68.0,60.8,78,29.87,10.0,NE,8.1,-,N/A,,Clear,50,2014-06-10 01:55:00
9:15 PM,68.0,60.8,78,29.87,10.0,NE,6.9,-,N/A,,Clear,40,2014-06-10 02:15:00
9:35 PM,68.0,60.8,78,29.88,10.0,NE,9.2,-,N/A,,Clear,40,2014-06-10 02:35:00
9:55 PM,66.2,60.8,83,29.88,10.0,NNE,8.1,-,N/A,,Clear,30,2014-06-10 02:55:00
10:15 PM,66.2,60.8,83,29.88,10.0,North,6.9,-,N/A,,Clear,10,2014-06-10 03:15:00
10:35 PM,66.2,60.8,83,29.88,10.0,NNE,8.1,-,N/A,,Clear,20,2014-06-10 03:35:00
10:55 PM,66.2,60.8,83,29.88,10.0,North,8.1,-,N/A,,Clear,10,2014-06-10 03:55:00
11:15 PM,66.2,60.8,83,29.88,10.0,NNE,9.2,-,N/A,,Clear,20,2014-06-10 04:15:00
11:35 PM,66.2,60.8,83,29.88,10.0,NNE,8.1,-,N/A,,Clear,20,2014-06-10 04:35:00
11:55 PM,64.4,59.0,83,29.88,10.0,NNE,9.2,-,N/A,,Clear,30,2014-06-10 04:55:00